Weather in Yautla

Russia / Kurgan Oblast     56°38′43″N   64°28′17″E
temp.,
°C
wind,
m/s
gust,
m/s
humid.,
%
clouds,
%
prec.,
mm/h
press.,
hPa
HPBL,
m
4 march, thu
thu423:00−8ssw379599 0.0 1000166
02:00−9ssw3795100 0.0 998140
05:00−10ssw369588 0.0 99896
08:00−10ssw389644 0.0 997145
11:00−5sw369171 0.0 996348
14:00−3sw4790100 0.0 995623
17:00−4sw4892100 0.2 996627
20:00−6wsw41187100 0.3 997390
5 march, fri
fri523:00−10wsw4108979 0.3 999253
02:00−11ssw3109033 0.0 998216
05:00−10s5149367 0.0 996457
08:00−5ssw61490100 1.1 994810
11:00−2wsw71280100 1.2 9931175
14:00−1wsw6117899 0.1 9951225
17:00−2wsw5127559 0.1 9971224
20:00−6wsw4128425 0.0 999387
6 march, sat
sat623:00−8w4128829 0.0 1001381
02:00−11wsw4109124 0.0 1002315
05:00−12w4129112 0.0 1005412
08:00−13w4128724 0.0 1006413
11:00−9w5108413 0.0 1008568
14:00−7wsw598541 0.0 1008765
17:00−7wsw598470 0.1 10081139
20:00−10sw4118954 0.0 1008295
7 march, sun
sun723:00−13sw369332 0.0 1009138
02:00−14sw229643 0.1 100955
05:00−14wnw009771 0.1 100820
08:00−14ne1297100 0.1 100738
11:00−10nne2389100 0.2 1007320
14:00−8nnw2386100 0.1 1007541
17:00−9nw2389100 0.2 1007452
20:00−14wnw229697 0.1 100930
8 march, mon
mon823:00−16wsw239673 0.1 101047
02:00−18w239740 0.0 101133
05:00−20w239848 0.0 101225
08:00−21sw23950 0.0 101256
11:00−14ssw368817 0.0 1011303
14:00−12s4884100 0.0 1010513
17:00−10s51190100 0.5 1007922
20:00−10s41293100 0.3 1006606